STARLINK-11732, 64370

Orbit data source: Space-Track

STARLINK-11732, 64370 is a payload satellite owned by SpaceX/Seattle (US) in LEO that was launched on Fri, 13 Jun 2025 UTC via an FALCON 9 launch vehicle from the Air Force Eastern Test Range (AFETR). Payload-class satellites include a variety of spacecraft equipped with specific instruments for various scientific and technological missions. These include communications satellites like Starlink; space stations such as the ISS; scientific satellites like the Hubble; Earth observation satellites from companies like Planet Labs, Umbra, and HawkEye 360; GPS; miniature CubeSats for education and research; and military/defense satellites.

Loading next visibility...
Identifier
64370, 2025-127A
Orbit
LEO
Country
Flag of USUS
Related business
Manufacturer
SpaceX/Seattle
Mission
Operational Commercial Communications
Bus & Motor
STARLINK V2MD, Unknown motor
Mass
960 kg wet, ~910 kg dry
Launch date (UTC)
2025-06-13 (10 months ago)
Launch vehicle
FALCON 9
Launch site
Air Force Eastern Test Range (AFETR)
Object type
Payload
Rocket body
Debris
Shape & HBR
Box + 2 Pan, 18.1 m
Radar Cross Section
36.964 m², Large (>1 m²)

Expand to show TLE details & history
Last TLE update: 8 hours ago

TLE from 8 hours ago
0 STARLINK-11732
1 64370U 25127A   26095.53426849  .00290278  00000-0  21829-2 0  9992
2 64370  42.9993 282.7904 0002385 263.2711  96.7885 15.70891100 47725
Epoch: 2026-04-05T12:49Z
TLE epoch observation values (Epoch: 2026-04-05T12:49:20.797Z)
Latitude
-0.00004°
Longitude
-103.38461°
Altitude
356.31 km
Speed
7.697 km/s
True Right ascension
18h 51m 09s
True Declination
0° 00' 00"
Sunlit
Object was in daylight at epoch
Visualization orbit readout
Latitude
Unknown
Longitude
Unknown
Altitude
Unknown
Speed
Unknown
Apparent Right ascension
Unknown
Apparent Declination
Unknown
Sunlit
N/A
Visualization observer readout
Local Sidereal Time
02:24:32
Azimuth
Unknown
Elevation
Unknown
Doppler factor
Unknown
Orbital elements
Apogee altitude
359.937 km
Perigee altitude
356.724 km
Semi-major axis
6,736.468 km
Eccentricity
0.00024
Inclination
42.9993°
RAAN
282.7904°
Arg. of periapsis
263.2711°
True anomaly
96.81564°
Mean anomaly
96.7885°
Eccentric anomaly
96.80207°
Mean motion
3.9255 °/min
Orbital period
91.71 mins
BSTAR
0.0021829
Loading maneuver chart data...
Computing Atmospheric mass density...
Loading historical data...
Loading historical data...
Loading historical data...
Loading historical data...
Loading historical data...
Loading historical data...
Loading historical data...

Documentation

Showing up to 5 results
|